Provincetown, MA

8:22 PM EDT on June 21, 2018 (GMT -0400)
Provincetown Municipal

Weather History for KPVC - December, 2017

Change the Weather History Date:

Thursday, December 7, 2017

  Actual Average Record
Temperature  
Mean Temperature 42 °F -  
Max Temperature 46 °F 43 °F 64 °F (1951)
Min Temperature 39 °F 34 °F 19 °F (2007)
Degree Days  
Heating Degree Days 22    
Moisture  
Dew Point 25 °F    
Average Humidity 51    
Maximum Humidity 62    
Minimum Humidity 37    
Precipitation  
Precipitation 0.00 in - - ()
Sea Level Pressure  
Sea Level Pressure 29.93 in    
Wind  
Wind Speed 14 mph (West)    
Max Wind Speed 25 mph    
Max Gust Speed 33 mph    
Visibility 10 miles    
Events      
Averages and records for this station are not official NWS values.
T = Trace of Precipitation, MM = Missing Value Source: NWS Daily Summary

Daily Weather History Graph

Daily Weather History Graph

Search for Another Location

Airport or City:

Astronomy

Dec. 07, 2017 Rise Set
Actual Time 6:55 AM EST 4:09 PM EST
Civil Twilight 6:24 AM EST 4:40 PM EST
Nautical Twilight 5:49 AM EST 5:15 PM EST
Astronomical Twilight 5:15 AM EST 5:49 PM EST
Moon 8:54 PM EST (12/7) 10:31 AM EST (12/7)
Length of Visible Light 10h 16m
Length of Day
9h 13m
Waning Gibbous, 78% of the Moon is Illuminated
Dec 7
Waning Gibbous
Dec 10
Last Quarter
Dec 18
New
Dec 26
First Quarter
Jan 1
Full

Hourly Weather History & Observations

Time (EST) Temp. Windchill Dew Point Humidity Pressure Visibility Wind Dir Wind Speed Gust Speed Precip Events Conditions
12:56 AM 41.0 °F 33.9 °F 24.1 °F 51% 29.94 in 10.0 mi West 12.7 mph - N/A   Clear
1:56 AM 39.9 °F 32.9 °F 25.0 °F 55% - 10.0 mi West 11.5 mph - N/A   Clear
2:56 AM 39.9 °F 31.4 °F 25.0 °F 55% 29.95 in 10.0 mi West 16.1 mph 23.0 mph N/A   Clear
3:56 AM 39.9 °F 31.1 °F 25.0 °F 55% 29.93 in 10.0 mi WSW 17.3 mph 21.9 mph N/A   Clear
4:56 AM 39.9 °F 31.4 °F 26.1 °F 58% 29.92 in 10.0 mi West 16.1 mph 21.9 mph N/A   Clear
5:56 AM 39.9 °F 31.4 °F 26.1 °F 58% 29.93 in 10.0 mi West 16.1 mph 23.0 mph N/A   Clear
6:56 AM 39.0 °F 31.4 °F 27.0 °F 62% 29.94 in 10.0 mi West 12.7 mph - N/A   Clear
7:56 AM 39.9 °F 32.1 °F 27.0 °F 60% 29.95 in 10.0 mi West 13.8 mph - N/A   Clear
8:56 AM 41.0 °F 33.5 °F 27.0 °F 57% 29.95 in 10.0 mi West 13.8 mph - N/A   Clear
9:56 AM 42.1 °F 34.5 °F 27.0 °F 55% 29.96 in 10.0 mi West 15.0 mph - N/A   Clear
10:56 AM 44.1 °F 38.1 °F 28.0 °F 53% 29.94 in 10.0 mi West 11.5 mph - N/A   Clear
11:56 AM 45.0 °F 38.9 °F 28.0 °F 52% 29.92 in 10.0 mi West 12.7 mph - N/A   Clear
12:56 PM 46.0 °F 40.2 °F 26.1 °F 46% 29.90 in 10.0 mi West 12.7 mph 18.4 mph N/A   Clear
1:56 PM 46.0 °F 40.2 °F 21.0 °F 37% 29.89 in 10.0 mi WSW 12.7 mph - N/A   Clear
2:56 PM 45.0 °F 40.1 °F 21.9 °F 40% 29.89 in 10.0 mi West 9.2 mph - N/A   Clear
3:56 PM 43.0 °F 36.8 °F 21.0 °F 42% 29.89 in 10.0 mi WSW 11.5 mph - N/A   Clear
4:56 PM 42.1 °F 37.7 °F 21.9 °F 45% 29.89 in 10.0 mi WSW 6.9 mph - N/A   Clear
5:56 PM 42.1 °F 34.9 °F 27.0 °F 55% 29.91 in 10.0 mi SW 13.8 mph - N/A   Clear
6:56 PM 41.0 °F 34.3 °F 26.1 °F 55% 29.92 in 10.0 mi West 11.5 mph - N/A   Clear
7:56 PM 41.0 °F 33.9 °F 23.0 °F 49% 29.94 in 10.0 mi West 12.7 mph - N/A   Clear
8:56 PM 41.0 °F 32.8 °F 23.0 °F 49% 29.94 in 10.0 mi West 16.1 mph - N/A   Overcast
9:56 PM 41.0 °F 33.9 °F 23.0 °F 49% 29.94 in 10.0 mi West 12.7 mph - N/A   Scattered Clouds
10:56 PM 39.9 °F 29.7 °F 21.0 °F 47% 29.96 in 10.0 mi West 23.0 mph 27.6 mph N/A   Clear
11:56 PM 39.9 °F 29.2 °F 21.9 °F 49% 29.96 in 10.0 mi West 25.3 mph 33.4 mph N/A   Clear